This demonstration page uses our WeatherBlox Daily Observations layout. Learn more.

Left ArrowRight Arrow

44.89941, -97.11507

Hourly Observations for May 31, 2022

Temp ( °F °C ) Dew Point ( °F °C ) Humidity (%) Winds ( mph kmh ) Pressure ( in mb ) Visibility ( mi km ) Precip ( " mm )
12:13 am 00:13 Cloudy 58 14.4 54 12.2 87 87 SW 18 30 29.32 993 10 16 0.00 0.00
12:35 am 00:35 Cloudy 58 14.4 56 13.3 93 93 SW 17 28 29.33 993 10 16 0.00 0.00
12:51 am 00:51 Cloudy with Light Rain 57 14 57 14 100 100 WSW 17 28 29.34 994 6 10 0.00 0.00
12:53 am 00:53 Cloudy with Light Rain 58 14.4 57 13.9 97 97 WSW 17 28 29.34 994 6 10 0.00 0.00
1:02 am 01:02 Cloudy 58 14.4 57 13.9 97 97 WSW 22 35 29.34 994 10 16 0.00 0.00
1:27 am 01:27 Cloudy 58 14.4 56 13.3 93 93 W 16 26 29.36 994 10 16 0.00 0.00
1:39 am 01:39 Cloudy 58 14.4 56 13.3 93 93 W 14 22 29.37 995 10 16 0.00 0.00
1:46 am 01:46 Cloudy 58 14.4 56 13.3 93 93 W 16 26 29.37 995 9 14 0.00 0.00
1:53 am 01:53 Cloudy 58 14.4 56 13.3 93 93 W 15 24 29.38 995 10 16 0.00 0.00
2:02 am 02:02 Cloudy 58 14.4 56 13.3 93 93 W 17 28 29.39 995 10 16 0.00 0.00
2:29 am 02:29 Cloudy 58 14.4 54 12.2 87 87 W 20 31 29.41 996 10 16 0.00 0.00
2:53 am 02:53 Cloudy 57 13.9 54 12.2 90 90 W 17 28 29.44 997 10 16 0.00 0.00
3:21 am 03:21 Cloudy 57 13.9 55 12.8 93 93 WSW 16 26 29.45 997 10 16 0.00 0.00
3:53 am 03:53 Cloudy 58 14.4 55 12.8 90 90 W 18 30 29.47 998 10 16 0.00 0.00
4:53 am 04:53 Cloudy 57 13.9 54 12.2 90 90 W 17 28 29.49 999 10 16 0.00 0.00
5:02 am 05:02 Cloudy 58 14.4 54 12.2 87 87 W 18 30 29.49 999 10 16 0.00 0.00
5:17 am 05:17 Cloudy 58 14.4 54 12.2 87 87 W 18 30 29.51 999 10 16 0.00 0.00
5:53 am 05:53 Cloudy 57 13.9 54 12.2 90 90 W 20 31 29.54 1000 10 16 0.00 0.00
6:07 am 06:07 Cloudy with Mist and Fog 57 13.9 54 12.2 90 90 WNW 14 22 29.55 1001 6 10 0.00 0.00
6:11 am 06:11 Cloudy with Mist and Fog 56 13.3 54 12.2 93 93 W 10 17 29.56 1001 5 8 0.00 0.00
6:23 am 06:23 Cloudy 57 13.9 54 12.2 90 90 W 21 33 29.56 1001 10 16 0.00 0.00
6:30 am 06:30 Cloudy 57 13.9 53 11.7 87 87 W 16 26 29.56 1001 10 16 0.00 0.00
6:53 am 06:53 Mostly Cloudy 57 13.9 52 11.1 83 83 W 20 31 29.60 1002 10 16 0.00 0.00
7:21 am 07:21 Mostly Cloudy 56 13.3 51 10.6 84 84 W 12 19 29.62 1003 10 16 0.00 0.00
7:45 am 07:45 Mostly Cloudy 56 13.3 51 10.6 84 84 W 14 22 29.63 1003 10 16 0.00 0.00
7:53 am 07:53 Cloudy 56 13.3 51 10.6 84 84 W 16 26 29.65 1004 10 16 0.00 0.00
8:13 am 08:13 Cloudy 57 13.9 52 11.1 83 83 W 17 28 29.64 1004 10 16 0.00 0.00
8:20 am 08:20 Cloudy 56 13.3 51 10.6 84 84 W 17 28 29.65 1004 10 16 0.00 0.00
8:53 am 08:53 Cloudy 58 14.4 52 11.1 81 81 W 18 30 29.67 1005 10 16 0.00 0.00
9:53 am 09:53 Cloudy 56 13.3 50 10 81 81 W 20 31 29.71 1006 10 16 0.00 0.00
10:20 am 10:20 Cloudy 57 13.9 49 9.4 74 74 WNW 16 26 29.71 1006 10 16 0.00 0.00
10:46 am 10:46 Cloudy 57 13.9 49 9.4 74 74 W 16 26 29.72 1007 10 16 0.00 0.00
10:53 am 10:53 Cloudy 57 13.9 50 10 78 78 W 20 31 29.74 1007 10 16 0.00 0.00
11:49 am 11:49 Cloudy with Light Rain 54 12 52 11 94 94 WNW 16 26 29.79 1009 5 8 0.01 0.25
11:53 am 11:53 Cloudy with Light Rain 54 12.2 52 11.1 93 93 W 15 24 29.79 1009 4 6 0.01 0.25
12:22 pm 12:22 Cloudy 57 13.9 51 10.6 81 81 W 20 31 29.78 1009 10 16 0.00 0.00
12:53 pm 12:53 Cloudy 56 13.3 49 9.4 77 77 W 20 31 29.81 1010 10 16 0.00 0.00
1:53 pm 13:53 Cloudy 57 13.9 48 8.9 72 72 WNW 17 28 29.85 1011 10 16 0.00 0.00
2:53 pm 14:53 Cloudy 57 13.9 47 8.3 69 69 NW 16 26 29.88 1012 10 16 0.00 0.00
3:53 pm 15:53 Cloudy 55 12.8 46 7.8 72 72 WNW 16 26 29.91 1013 10 16 0.00 0.00
4:53 pm 16:53 Cloudy 55 12.8 45 7.2 69 69 WNW 13 20 29.94 1014 10 16 0.00 0.00
5:12 pm 17:12 Cloudy 55 12.8 46 7.8 72 72 WNW 12 19 29.94 1014 10 16 0.00 0.00
5:24 pm 17:24 Cloudy 55 12.8 46 7.8 72 72 WNW 12 19 29.94 1014 10 16 0.00 0.00
5:53 pm 17:53 Cloudy 55 12.8 46 7.8 72 72 WNW 12 19 29.97 1015 10 16 0.00 0.00
6:08 pm 18:08 Cloudy 55 12.8 45 7.2 69 69 WNW 14 22 29.96 1015 10 16 0.00 0.00
6:22 pm 18:22 Cloudy 55 12.8 46 7.8 72 72 WNW 14 22 29.96 1015 10 16 0.00 0.00
6:44 pm 18:44 Cloudy 55 12.8 46 7.8 72 72 WNW 9 15 29.97 1015 10 16 0.00 0.00
6:53 pm 18:53 Cloudy 55 12.8 46 7.8 72 72 WNW 9 15 29.98 1015 10 16 0.00 0.00
7:53 pm 19:53 Cloudy 55 12.8 47 8.3 74 74 W 10 17 30.00 1016 10 16 0.00 0.00
8:53 pm 20:53 Sunny 55 12.8 46 7.8 72 72 W 8 13 30.00 1016 10 16 0.00 0.00
9:53 pm 21:53 Clear 51 10.6 46 7.8 83 83 WSW 7 11 30.02 1017 10 16 0.00 0.00
10:53 pm 22:53 Clear 49 9.4 46 7.8 90 90 WSW 6 9 30.04 1017 10 16 0.00 0.00
11:53 pm 23:53 Clear 47 8.3 46 7.8 97 97 WSW 6 9 30.06 1018 10 16 0.00 0.00

Powered by AerisWeather